Santa Ynez, CA

9:28 PM PST on February 20, 2017 (GMT -0800)
Santa Ynez

Weather History for KIZA - February, 2014

Change the Weather History Date:

Sunday, February 16, 2014

  Actual Average (KSBA) Record (KSBA)
Temperature  
Mean Temperature 60 °F -  
Max Temperature 75 °F 64 °F 83 °F (2016)
Min Temperature 44 °F 43 °F 32 °F (1944)
Degree Days  
Heating Degree Days 6    
Growing Degree Days 10 (Base 50)    
Moisture  
Dew Point 47 °F    
Average Humidity 73    
Maximum Humidity 94    
Minimum Humidity 34    
Precipitation  
Precipitation 0.00 in - - ()
Sea Level Pressure  
Sea Level Pressure 30.05 in    
Wind  
Wind Speed 3 mph (West)    
Max Wind Speed 17 mph    
Max Gust Speed 20 mph    
Visibility 10 miles    
Events      
Averages and records for this station are not official NWS values.
T = Trace of Precipitation, MM = Missing Value Source: NWS Daily Summary

Daily Weather History Graph

Daily Weather History Graph

Search for Another Location

Airport or City:

Trip Planner

Search our weather history database for the weather conditions in past years. The results will help you decide how hot, cold, wet, or windy it might be!

Date:

Astronomy

Feb. 16, 2014 Rise Set
Actual Time 6:44 AM PST 5:44 PM PST
Civil Twilight 6:18 AM PST 6:10 PM PST
Nautical Twilight 5:49 AM PST 6:39 PM PST
Astronomical Twilight 5:20 AM PST 7:09 PM PST
Moon 7:39 PM PST (2/16) 7:22 AM PST (2/16)
Length of Visible Light 11h 51m
Length of Day
11h 00m
Full, 97% of the Moon is Illuminated
Feb 16
Full
Feb 22
Last Quarter
Mar 1
New
Mar 8
First Quarter
Mar 16
Full

Hourly Weather History & Observations

Time (PST) Temp. Dew Point Humidity Pressure Visibility Wind Dir Wind Speed Gust Speed Precip Events Conditions
12:15 AM 51.8 °F 50.0 °F 94% 30.08 in 10.0 mi West 5.8 mph - N/A   Overcast
12:35 AM 51.8 °F 50.0 °F 94% 30.07 in 10.0 mi Calm Calm - N/A   Overcast
12:55 AM 51.8 °F 50.0 °F 94% 30.07 in 10.0 mi Calm Calm - N/A   Overcast
1:15 AM 51.8 °F 50.0 °F 94% 30.06 in 10.0 mi Calm Calm - N/A   Overcast
1:35 AM 51.8 °F 50.0 °F 94% 30.07 in 10.0 mi Calm Calm - N/A   Overcast
1:55 AM 51.8 °F 50.0 °F 94% 30.07 in 10.0 mi Calm Calm - N/A   Overcast
2:15 AM 51.8 °F 50.0 °F 94% 30.06 in 10.0 mi South 3.5 mph - N/A   Overcast
2:35 AM 51.8 °F 50.0 °F 94% 30.06 in 10.0 mi Calm Calm - N/A   Overcast
2:55 AM 51.8 °F 48.2 °F 88% 30.05 in 10.0 mi Calm Calm - N/A   Overcast
3:15 AM 51.8 °F 48.2 °F 88% 30.03 in 10.0 mi ESE 3.5 mph - N/A   Overcast
3:35 AM 51.8 °F 48.2 °F 88% 30.03 in 10.0 mi Calm Calm - N/A   Overcast
3:55 AM 51.8 °F 48.2 °F 88% 30.05 in 10.0 mi Calm Calm - N/A   Overcast
4:15 AM 51.8 °F 48.2 °F 88% 30.05 in 10.0 mi Calm Calm - N/A   Overcast
4:35 AM 50.0 °F 48.2 °F 94% 30.03 in 10.0 mi Calm Calm - N/A   Overcast
4:55 AM 50.0 °F 48.2 °F 94% 30.03 in 10.0 mi Calm Calm - N/A   Overcast
5:15 AM 51.8 °F 48.2 °F 88% 30.05 in 10.0 mi Calm Calm - N/A   Overcast
5:35 AM 51.8 °F 48.2 °F 88% 30.05 in 10.0 mi Calm Calm - N/A   Overcast
5:55 AM 50.0 °F 48.2 °F 94% 30.05 in 10.0 mi NW 4.6 mph - N/A   Overcast
6:15 AM 50.0 °F 46.4 °F 87% 30.06 in 10.0 mi NW 3.5 mph - N/A   Overcast
6:35 AM 50.0 °F 46.4 °F 87% 30.07 in 10.0 mi Calm Calm - N/A   Overcast
6:55 AM 50.0 °F 46.4 °F 87% 30.07 in 10.0 mi NNW 5.8 mph - N/A   Overcast
7:15 AM 50.0 °F 46.4 °F 87% 30.07 in 10.0 mi NNW 3.5 mph - N/A   Overcast
7:35 AM 50.0 °F 46.4 °F 87% 30.07 in 7.0 mi Calm Calm - N/A   Overcast
7:55 AM 50.0 °F 46.4 °F 87% 30.08 in 10.0 mi North 4.6 mph - N/A   Overcast
8:15 AM 50.0 °F 46.4 °F 87% 30.10 in 10.0 mi NW 4.6 mph - N/A   Overcast
8:35 AM 50.0 °F 46.4 °F 87% 30.10 in 10.0 mi Calm Calm - N/A   Overcast
8:55 AM 51.8 °F 46.4 °F 82% 30.10 in 10.0 mi Calm Calm - N/A   Overcast
9:15 AM 51.8 °F 46.4 °F 82% 30.10 in 10.0 mi Calm Calm - N/A   Mostly Cloudy
9:35 AM 53.6 °F 46.4 °F 77% 30.10 in 10.0 mi SE 3.5 mph - N/A   Scattered Clouds
9:55 AM 55.4 °F 46.4 °F 72% 30.10 in 10.0 mi SE 3.5 mph - N/A   Clear
10:15 AM 55.4 °F 46.4 °F 72% 30.10 in 10.0 mi Calm Calm - N/A   Clear
10:35 AM 59.0 °F 46.4 °F 63% 30.10 in 10.0 mi Calm Calm - N/A   Clear
10:55 AM 60.8 °F 46.4 °F 59% 30.10 in 10.0 mi Calm Calm - N/A   Clear
11:15 AM 60.8 °F 46.4 °F 59% 30.09 in 10.0 mi SW 5.8 mph - N/A   Clear
11:35 AM 62.6 °F 46.4 °F 55% 30.08 in 10.0 mi SW 3.5 mph - N/A   Clear
11:55 AM 66.2 °F 44.6 °F 46% 30.06 in 10.0 mi SW 4.6 mph - N/A   Clear
12:15 PM 68.0 °F 44.6 °F 43% 30.05 in 10.0 mi SSW 3.5 mph - N/A   Clear
12:35 PM 69.8 °F 44.6 °F 40% 30.03 in 10.0 mi WSW 4.6 mph - N/A   Clear
12:55 PM 73.4 °F 46.4 °F 38% 30.02 in 10.0 mi SW 8.1 mph - N/A   Clear
1:15 PM 75.2 °F 44.6 °F 34% 30.02 in 10.0 mi WNW 10.4 mph 16.1 mph N/A   Clear
1:35 PM 73.4 °F 46.4 °F 38% 30.00 in 10.0 mi West 13.8 mph - N/A   Clear
1:55 PM 73.4 °F 46.4 °F 38% 30.00 in 10.0 mi West 15.0 mph - N/A   Clear
2:15 PM 73.4 °F 46.4 °F 38% 30.00 in 10.0 mi WNW 15.0 mph - N/A   Clear
2:35 PM 73.4 °F 46.4 °F 38% 29.99 in 10.0 mi West 17.3 mph - N/A   Clear
2:55 PM 71.6 °F 46.4 °F 41% 29.99 in 10.0 mi West 13.8 mph - N/A   Clear
3:15 PM 71.6 °F 46.4 °F 41% 29.99 in 10.0 mi West 16.1 mph - N/A   Clear
3:35 PM 71.6 °F 46.4 °F 41% 29.99 in 10.0 mi West 13.8 mph 18.4 mph N/A   Clear
3:55 PM 69.8 °F 46.4 °F 43% 30.00 in 10.0 mi West 12.7 mph 19.6 mph N/A   Clear
4:15 PM 69.8 °F 46.4 °F 43% 30.00 in 10.0 mi West 13.8 mph - N/A   Clear
4:35 PM 68.0 °F 46.4 °F 46% 30.00 in 10.0 mi West 10.4 mph - N/A   Clear
4:55 PM 64.4 °F 46.4 °F 52% 30.00 in 10.0 mi West 10.4 mph - N/A   Clear
5:15 PM 62.6 °F 46.4 °F 55% 30.01 in 10.0 mi West 13.8 mph - N/A   Clear
5:35 PM 60.8 °F 46.4 °F 59% 30.02 in 10.0 mi West 12.7 mph - N/A   Clear
5:55 PM 59.0 °F 46.4 °F 63% 30.02 in 10.0 mi WNW 15.0 mph - N/A   Clear
6:15 PM 57.2 °F 46.4 °F 67% 30.03 in 10.0 mi WNW 11.5 mph - N/A   Clear
6:35 PM 55.4 °F 46.4 °F 72% 30.05 in 10.0 mi NW 9.2 mph - N/A   Clear
6:55 PM 55.4 °F 46.4 °F 72% 30.05 in 10.0 mi Calm Calm - N/A   Clear
7:15 PM 53.6 °F 46.4 °F 77% 30.05 in 10.0 mi Calm Calm - N/A   Clear
7:35 PM 53.6 °F 46.4 °F 77% 30.05 in 10.0 mi Calm Calm - N/A   Clear
7:55 PM 53.6 °F 46.4 °F 77% 30.05 in 10.0 mi Calm Calm - N/A   Clear
8:15 PM 51.8 °F 46.4 °F 82% 30.05 in 10.0 mi Calm Calm - N/A   Clear
8:35 PM 50.0 °F 44.6 °F 82% 30.05 in 10.0 mi Calm Calm - N/A   Clear
8:55 PM 50.0 °F 44.6 °F 82% 30.05 in 10.0 mi Calm Calm - N/A   Clear
9:15 PM 50.0 °F 44.6 °F 82% 30.06 in 10.0 mi Calm Calm - N/A   Clear
9:35 PM 50.0 °F 44.6 °F 82% 30.06 in 10.0 mi Calm Calm - N/A   Clear
9:55 PM 50.0 °F 44.6 °F 82% 30.07 in 10.0 mi Calm Calm - N/A   Clear
10:15 PM 46.4 °F 44.6 °F 93% 30.07 in 10.0 mi Calm Calm - N/A   Clear
10:35 PM 46.4 °F 44.6 °F 93% 30.08 in 10.0 mi Calm Calm - N/A   Clear
10:55 PM 46.4 °F 42.8 °F 87% 30.08 in 10.0 mi Calm Calm - N/A   Clear
11:15 PM 46.4 °F 42.8 °F 87% 30.09 in 10.0 mi Calm Calm - N/A   Clear
11:35 PM 44.6 °F 42.8 °F 93% 30.08 in 10.0 mi Calm Calm - N/A   Clear
11:55 PM 44.6 °F 42.8 °F 93% 30.08 in 10.0 mi Calm Calm - N/A   Clear